Home   Weather   Konstanz   Past weeks

Flag for Germany Past Weather in Konstanz, Baden-Württemberg, Germany — Yesterday and Last 2 Weeks

Now
30 °F

Low clouds.


Feels Like: 24 °F
Forecast: 23 / 42 °F
Wind: 6 mph from Northeast

Location: Friedrichshafen Airport

Current Time: Dec 5, 2016 at 1:42:25 am

Latest Report: Dec 5, 2016 at 12:50 am


Visibility: 4 mi

Pressure: 30.33 "Hg

Humidity: 93%

Dew Point: 28 °F

Location of KonstanzLocation

Past Weather in Konstanz — Graph

°F

Konstanz Temperature Yesterday

Maximum temperature yesterday: 39 °F (at 1:50 pm)
Minimum temperature yesterday: 30 °F (at 6:20 pm)
Average temperature yesterday: 33 °F

High & Low Weather Summary for the Past Weeks

 TemperatureHumidityPressure
High68 °F (Nov 21, 12:20 pm)100% (Nov 20, 1:50 am)30.57 "Hg (Nov 20, 1:50 am)
Low19 °F (Nov 30, 5:20 am)30% (Nov 21, 12:20 pm)29.62 "Hg (Nov 21, 8:20 am)
Average40 °F82%30.09 "Hg
* Reported Nov 20 12:20 am — Dec 5 12:20 am, Konstanz, Weather by CustomWeather, © 2016

Note: Actual official high and low records may vary slightly from our data, if they occured in-between our weather recording intervals... More about our weather records

Advertising

Konstanz Weather History for the Previous 24 Hours

Scroll right to see more
 ConditionsComfort  
Time TempWeatherWind HumidityBarometerVisibility
12:20 am
Mon, Dec 5
30 °FLow clouds.6 mph93%30.33 "Hg4 mi
11:50 pm
Sun, Dec 4
30 °FLow clouds.5 mph93%30.33 "Hg4 mi
11:20 pm30 °FLow clouds.5 mph93%30.33 "Hg4 mi
10:57 pm30 °FOvercast.6 mph93%30.33 "Hg4 mi
10:50 pm30 °FOvercast.5 mph93%30.33 "Hg4 mi
10:20 pm30 °FOvercast.5 mph93%30.33 "Hg4 mi
9:50 pm30 °FPassing clouds.5 mph93%30.33 "Hg4 mi
9:20 pm30 °FPassing clouds.6 mph93%30.30 "Hg4 mi
8:50 pm30 °FChilly.5 mph93%30.30 "Hg5 mi
8:20 pm30 °FChilly.6 mph93%30.30 "Hg6 mi
7:50 pm30 °FChilly.5 mph93%30.30 "Hg6 mi
6:50 pm30 °FClear.3 mph93%30.30 "Hg10 mi
6:20 pm30 °FClear.5 mph93%30.30 "Hg10 mi
5:50 pm32 °FClear.5 mph87%30.30 "Hg10 mi
5:20 pm32 °FClear.7 mph87%30.30 "Hg10 mi
4:50 pm32 °FClear.7 mph87%30.27 "Hg10 mi
4:20 pm34 °FSunny.9 mph81%30.27 "Hg10 mi
3:50 pm36 °FSunny.8 mph81%30.27 "Hg10 mi
3:20 pm37 °FSunny.9 mph75%30.27 "Hg10 mi
2:50 pm37 °FSunny.8 mph75%30.27 "Hg10 mi
2:20 pm37 °FSunny.6 mph75%30.27 "Hg10 mi
1:50 pm39 °FPassing clouds.5 mph70%30.27 "HgN/A
1:20 pm37 °FPassing clouds.5 mph75%30.27 "HgN/A
12:50 pm37 °FScattered clouds.5 mph70%30.27 "HgN/A
12:20 pm37 °FPartly sunny.3 mph75%30.27 "HgN/A
11:50 am37 °FPartly sunny.3 mph70%30.27 "HgN/A
11:20 am37 °FOvercast.2 mph75%30.30 "HgN/A
10:50 am36 °FOvercast.3 mph75%30.30 "HgN/A
10:20 am36 °FOvercast.5 mph81%30.30 "HgN/A
9:50 am34 °FOvercast.6 mph81%30.27 "HgN/A
9:20 am34 °FOvercast.7 mph81%30.27 "HgN/A
8:50 am32 °FOvercast.7 mph87%30.27 "HgN/A
8:20 am32 °FOvercast.6 mph87%30.27 "HgN/A
7:50 am32 °FOvercast.6 mph87%30.27 "HgN/A
7:20 am32 °FOvercast.6 mph87%30.27 "HgN/A
6:50 am32 °FOvercast.7 mph87%30.24 "HgN/A
6:20 am32 °FOvercast.6 mph87%30.24 "HgN/A
5:50 am32 °FOvercast.6 mph87%30.24 "HgN/A
5:20 am32 °FOvercast.3 mph87%30.24 "HgN/A
4:50 am32 °FOvercast.7 mph87%30.24 "HgN/A
4:20 am32 °FOvercast.7 mph87%30.24 "HgN/A
3:50 am32 °FOvercast.5 mph87%30.24 "HgN/A
3:20 am32 °FOvercast.5 mph87%30.24 "HgN/A
2:50 am32 °FOvercast.6 mph87%30.24 "HgN/A
2:20 am32 °FOvercast.5 mph87%30.24 "HgN/A
1:50 am32 °FOvercast.7 mph87%30.24 "HgN/A
1:20 am32 °FOvercast.7 mph87%30.21 "HgN/A
Weather by CustomWeather, © 2016

See weather overviewHow to use our weather pages